Weather History for Cumshewa Island, BC

Change the Weather History Date:

Thursday, February 14, 2013

  Actual Average Record
Temperature  
Mean Temperature 48 °F -  
Max Temperature 53 °F - - ()
Min Temperature 43 °F - - ()
Degree Days  
Heating Degree Days 17    
Moisture  
Dew Point 44 °F    
Average Humidity 89    
Maximum Humidity 96    
Minimum Humidity 73    
Precipitation  
Precipitation 0.00 in - - ()
Sea Level Pressure  
Sea Level Pressure 30.22 in    
Wind  
Wind Speed 9 mph ()    
Max Wind Speed 24 mph    
Max Gust Speed -    
T = Trace of Precipitation, MM = Missing Value Source: Averaged Metar Reports

Daily Weather History Graph

Daily Weather History Graph

Search for Another Location

Airport:

Trip Planner

Search our weather history database for the weather conditions in past years. The results will help you decide how hot, cold, wet, or windy it might be!

Date:

Astronomy

Feb. 14, 2013 Rise Set
Actual Time 8:04 AM PST 5:57 PM PST
Civil Twilight 7:29 AM PST 6:32 PM PST
Nautical Twilight 6:48 AM PST 7:13 PM PST
Astronomical Twilight 6:08 AM PST 7:53 PM PST
Moon 9:24 AM PST (2/14) 11:58 PM PST (2/14)
Length of Visible Light 11h 03m
Length of Day
9h 52m
Waxing Crescent, 22% of the Moon is Illuminated
Feb 14
Waxing Crescent
Feb 17
First Quarter
Feb 25
Full
Mar 4
Last Quarter
Mar 11
New

Hourly Weather History & Observations

Time (PST) Temp. Windchill Dew Point Humidity Pressure Visibility Wind Dir Wind Speed Gust Speed Precip Events Conditions
12:00 AM 44.8 °F 36.4 °F 43.7 °F 96% 30.17 in - SSE 21.9 mph - N/A   Unknown
1:00 AM 44.2 °F 37.3 °F 42.4 °F 93% 30.17 in - South 15.0 mph - N/A   Unknown
2:00 AM 44.1 °F 38.6 °F 41.9 °F 92% 30.19 in - South 10.4 mph - N/A   Unknown
3:00 AM 43.7 °F 42.1 °F 41.5 °F 92% 30.20 in - South 3.5 mph - N/A   Unknown
4:00 AM 44 °F - 42 °F 90% 30.19 in - South 3.5 mph - -  
4:00 AM 43.5 °F 41.9 °F 42.1 °F 95% 30.19 in - South 3.5 mph - N/A   Unknown
5:00 AM 44.2 °F 38.4 °F 42.4 °F 93% 30.21 in - South 11.5 mph - N/A   Unknown
6:00 AM 43.9 °F 41.3 °F 42.1 °F 93% 30.20 in - SSW 4.6 mph - N/A   Unknown
7:00 AM 44.8 °F 40.4 °F 43.0 °F 93% 30.20 in - South 8.1 mph - N/A   Unknown
8:00 AM 44.2 °F 41.8 °F 42.4 °F 93% 30.22 in - SSW 4.6 mph - N/A   Unknown
9:00 AM 43.5 °F - 42.1 °F 95% 30.22 in - SW 2.3 mph - N/A   Unknown
10:00 AM 45 °F - 43 °F 91% 30.23 in - WSW 1.2 mph - -  
10:00 AM 44.6 °F - 43.2 °F 95% 30.23 in - WSW 1.2 mph - N/A   Unknown
11:00 AM 45.1 °F - 43.7 °F 95% 30.24 in - NW 2.3 mph - N/A   Unknown
12:00 PM 45.5 °F 44.2 °F 43.9 °F 94% 30.26 in - North 3.5 mph - N/A   Unknown
1:00 PM 46.6 °F - 44.6 °F 93% 30.26 in - Calm Calm - N/A   Unknown
2:00 PM 47.1 °F - 44.6 °F 91% 30.26 in - NE 2.3 mph - N/A   Unknown
3:00 PM 47.8 °F - 44.2 °F 87% 30.25 in - SE 6.9 mph - N/A   Unknown
4:00 PM 50 °F - 44 °F 73% 30.24 in - SE 4.6 mph - -  
4:00 PM 50.0 °F - 43.9 °F 79% 30.24 in - SE 4.6 mph - N/A   Unknown
5:00 PM 49.1 °F - 45.1 °F 86% 30.21 in - SE 21.9 mph - N/A   Unknown
6:00 PM 48.9 °F - 45.3 °F 87% 30.21 in - SE 19.6 mph - N/A   Unknown
7:00 PM 50.5 °F - 45.9 °F 84% 30.22 in - SSE 16.1 mph - N/A   Unknown
8:00 PM 50.2 °F - 45.5 °F 84% 30.21 in - SSE 15.0 mph - N/A   Unknown
9:00 PM 53.1 °F - 45.3 °F 75% 30.22 in - West 13.8 mph - N/A   Unknown
10:00 PM 49 °F - 45 °F 83% 30.22 in - SSE 15.0 mph - -  
10:00 PM 49.5 °F - 45.3 °F 86% 30.22 in - SSE 15.0 mph - N/A   Unknown
11:00 PM 48.6 °F - 45.7 °F 90% 30.22 in - SSE 24.2 mph - N/A   Unknown